Home   Weather   Salvador   Past weeks

Flag for Brazil Past Weather in Salvador, Bahia, Brazil — Yesterday and Last 2 Weeks

Now
82 °F

Passing clouds.


Feels Like: 87 °F
Forecast: N/A
Wind: 6 mph from Southeast

Location: Salvador Aeroporto

Current Time: Apr 25, 2017 at 7:32:13 pm

Latest Report: Apr 25, 2017 at 7:00 pm


Visibility: N/A

Pressure: 29.92 "Hg

Humidity: 70%

Dew Point: 72 °F

Location of SalvadorLocation

Past Weather in Salvador — Graph

°F

Salvador Temperature Yesterday

Maximum temperature yesterday: 86 °F (at 10:00 am)
Minimum temperature yesterday: 81 °F (at 12:00 am)
Average temperature yesterday: 83 °F

High & Low Weather Summary for the Past Weeks

 TemperatureHumidityPressure
High86 °F (Apr 11, 12:00 pm)100% (Apr 14, 7:00 pm)30.04 "Hg (Apr 14, 7:00 pm)
Low39 °F (Apr 14, 7:00 pm)55% (Apr 20, 12:00 pm)29.86 "Hg (Apr 11, 2:00 pm)
Average80 °F75%29.93 "Hg
* Reported Apr 10 6:00 pm — Apr 25 6:00 pm, Salvador, Weather by CustomWeather, © 2017

Note: Actual official high and low records may vary slightly from our data, if they occured in-between our weather recording intervals... More about our weather records

Advertising

Salvador Weather History for the Previous 24 Hours

Scroll right to see more
 ConditionsComfort  
Time TempWeatherWind HumidityBarometerVisibility
6:00 pm
Tue, Apr 25
82 °FPassing clouds.7 mph74%29.89 "HgN/A
5:00 pm82 °FScattered clouds.8 mph74%29.89 "HgN/A
4:00 pm84 °FScattered clouds.8 mph66%29.86 "HgN/A
3:00 pm84 °FScattered clouds.9 mph62%29.86 "HgN/A
2:00 pm82 °FBroken clouds.14 mph74%29.89 "HgN/A
1:00 pm86 °FScattered clouds.10 mph66%29.89 "HgN/A
12:00 pm86 °FScattered clouds.12 mph62%29.92 "HgN/A
11:00 am84 °FScattered clouds.10 mph66%29.95 "HgN/A
10:00 am86 °FScattered clouds.10 mph62%29.95 "HgN/A
9:00 am84 °FScattered clouds.10 mph66%29.95 "HgN/A
8:00 am82 °FScattered clouds.7 mph74%29.95 "HgN/A
7:00 am81 °FScattered clouds.6 mph74%29.92 "HgN/A
6:00 am81 °FScattered clouds.6 mph74%29.92 "HgN/A
5:00 am81 °FPassing clouds.7 mph74%29.89 "HgN/A
4:00 am81 °FPassing clouds.6 mph74%29.92 "HgN/A
2:00 am81 °FPassing clouds.9 mph79%29.92 "HgN/A
1:00 am81 °FPassing clouds.7 mph79%29.95 "HgN/A
12:00 am81 °FPassing clouds.6 mph74%29.98 "HgN/A
11:00 pm
Mon, Apr 24
81 °FPassing clouds.7 mph79%29.98 "HgN/A
10:00 pm81 °FPassing clouds.8 mph79%29.98 "HgN/A
9:00 pm81 °FPassing clouds.7 mph79%29.98 "HgN/A
8:00 pm82 °FPassing clouds.7 mph70%29.98 "HgN/A
7:00 pm82 °FPassing clouds.8 mph70%29.95 "HgN/A
Weather by CustomWeather, © 2017

See weather overviewHow to use our weather pages